Time,TemperatureF,DewpointF,PressureIn,WindDirection,WindDirectionDegrees,WindSpeedMPH,WindSpeedGustMPH,Humidity,HourlyPrecipIn,Conditions,Clouds,dailyrainin,SoftwareType,DateUTC
2014-07-24 00:01:00,67.3,56.4,29.06,ENE,68,4.7,4.7,68,0.00,,,0.00,VWS V15.00,2014-07-24 04:01:00,
2014-07-24 00:02:00,67.1,56.2,29.06,NE,45,3.1,3.1,68,0.00,,,0.00,VWS V15.00,2014-07-24 04:02:00,
2014-07-24 00:03:00,67.1,56.2,29.06,ENE,68,3.8,3.8,68,0.00,,,0.00,VWS V15.00,2014-07-24 04:03:00,
2014-07-24 00:04:00,67.1,55.8,29.06,ENE,68,5.8,5.8,67,0.00,,,0.00,VWS V15.00,2014-07-24 04:04:00,
2014-07-24 00:10:00,67.1,56.2,29.06,East,90,3.4,3.4,68,0.00,,,0.00,VWS V15.00,2014-07-24 04:10:00,
2014-07-24 00:12:00,67.1,55.8,29.06,NNE,22,6.0,6.0,67,0.00,,,0.00,VWS V15.00,2014-07-24 04:12:00,
2014-07-24 00:17:00,66.9,55.6,29.06,SE,135,2.0,2.0,67,0.00,,,0.00,VWS V15.00,2014-07-24 04:17:00,
2014-07-24 00:18:00,66.9,55.6,29.06,ENE,68,2.9,2.9,67,0.00,,,0.00,VWS V15.00,2014-07-24 04:18:00,
2014-07-24 00:23:00,66.9,55.6,29.06,NE,45,6.3,6.3,67,0.00,,,0.00,VWS V15.00,2014-07-24 04:23:00,
2014-07-24 00:28:00,66.7,55.0,29.06,NE,45,3.6,3.6,66,0.00,,,0.00,VWS V15.00,2014-07-24 04:28:00,
2014-07-24 00:33:00,66.6,54.9,29.06,NE,45,7.4,7.4,66,0.00,,,0.00,VWS V15.00,2014-07-24 04:33:00,
2014-07-24 00:38:00,66.6,54.9,29.06,NNE,22,3.4,3.4,66,0.00,,,0.00,VWS V15.00,2014-07-24 04:38:00,
2014-07-24 00:43:00,66.6,54.9,29.06,NE,45,2.9,2.9,66,0.00,,,0.00,VWS V15.00,2014-07-24 04:43:00,
2014-07-24 00:48:00,66.4,54.7,29.06,NE,45,2.9,2.9,66,0.00,,,0.00,VWS V15.00,2014-07-24 04:48:00,
2014-07-24 00:53:00,66.4,54.7,29.06,NE,45,2.7,2.7,66,0.00,,,0.00,VWS V15.00,2014-07-24 04:53:00,
2014-07-24 00:58:00,66.2,54.5,29.06,NE,45,3.6,3.6,66,0.00,,,0.00,VWS V15.00,2014-07-24 04:58:00,
2014-07-24 01:03:00,66.0,54.3,29.06,NE,45,2.5,2.5,66,0.00,,,0.00,VWS V15.00,2014-07-24 05:03:00,
2014-07-24 01:08:00,65.7,54.4,29.06,East,90,2.5,2.5,67,0.00,,,0.00,VWS V15.00,2014-07-24 05:08:00,
2014-07-24 01:13:00,65.5,54.2,29.06,NE,45,5.4,5.4,67,0.00,,,0.00,VWS V15.00,2014-07-24 05:13:00,
2014-07-24 01:18:00,65.3,54.1,29.06,NE,45,4.3,4.3,67,0.00,,,0.00,VWS V15.00,2014-07-24 05:18:00,
2014-07-24 01:23:00,65.1,53.9,29.06,NE,45,0.0,0.0,67,0.00,,,0.00,VWS V15.00,2014-07-24 05:23:00,
2014-07-24 01:28:00,64.8,53.6,29.06,East,90,4.9,4.9,67,0.00,,,0.00,VWS V15.00,2014-07-24 05:28:00,
2014-07-24 01:34:00,64.6,53.8,29.06,ENE,68,2.2,2.2,68,0.00,,,0.00,VWS V15.00,2014-07-24 05:34:00,
2014-07-24 01:39:00,64.4,53.6,29.06,ENE,68,2.0,2.0,68,0.00,,,0.00,VWS V15.00,2014-07-24 05:39:00,
2014-07-24 01:44:00,64.2,53.5,29.06,East,90,2.5,2.5,68,0.00,,,0.00,VWS V15.00,2014-07-24 05:44:00,
2014-07-24 01:49:00,64.2,53.5,29.06,NNE,22,2.2,2.2,68,0.00,,,0.00,VWS V15.00,2014-07-24 05:49:00,
2014-07-24 01:54:00,64.0,53.3,29.06,NE,45,1.6,1.6,68,0.00,,,0.00,VWS V15.00,2014-07-24 05:54:00,
2014-07-24 01:59:00,63.9,52.7,29.06,NE,45,6.0,6.0,67,0.00,,,0.00,VWS V15.00,2014-07-24 05:59:00,
2014-07-24 02:04:00,63.7,52.1,29.06,ENE,68,3.1,3.1,66,0.00,,,0.00,VWS V15.00,2014-07-24 06:04:00,
2014-07-24 02:09:00,63.5,51.1,29.06,ENE,68,2.7,2.7,64,0.00,,,0.00,VWS V15.00,2014-07-24 06:09:00,
2014-07-24 02:14:00,63.5,51.1,29.06,NNW,338,2.9,2.9,64,0.00,,,0.00,VWS V15.00,2014-07-24 06:14:00,
2014-07-24 02:19:00,63.5,50.7,29.06,NE,45,8.7,8.7,63,0.00,,,0.00,VWS V15.00,2014-07-24 06:19:00,
2014-07-24 02:24:00,63.7,50.9,29.06,NE,45,3.4,3.4,63,0.00,,,0.00,VWS V15.00,2014-07-24 06:24:00,
2014-07-24 02:29:00,63.7,50.4,29.06,East,90,7.6,7.6,62,0.00,,,0.00,VWS V15.00,2014-07-24 06:29:00,
2014-07-24 02:34:00,63.9,50.6,29.06,ENE,68,4.3,4.3,62,0.00,,,0.00,VWS V15.00,2014-07-24 06:34:00,
2014-07-24 02:39:00,63.9,50.6,29.06,ENE,68,7.2,7.2,62,0.00,,,0.00,VWS V15.00,2014-07-24 06:39:00,
2014-07-24 02:44:00,63.7,50.4,29.06,East,90,2.7,2.7,62,0.00,,,0.00,VWS V15.00,2014-07-24 06:44:00,
2014-07-24 02:49:00,63.5,50.3,29.06,NE,45,2.9,2.9,62,0.00,,,0.00,VWS V15.00,2014-07-24 06:49:00,
2014-07-24 02:54:00,63.5,49.8,29.06,NE,45,2.9,2.9,61,0.00,,,0.00,VWS V15.00,2014-07-24 06:54:00,